When you browse on this site, cookies collect data to enhance your experience and personalize the content and advertising you see.
Visit our Privacy Policy to learn more. By continuing to use the site, you agree to this use of cookies and data.
  • In Latvia
  • List of Countries
  • For 7 days
  • Water Temperature
  • Weather Map
  • Weather Widgets
  • user-avatar
    Login

    Hourly Weather Igls

    Today, 6 June, Saturday

    Time Temperature Precipitation Wind Pressure Humidity
    00:00 +10°C° 0 mm 1 mps 676 mmHg 93%
    01:00 +10°C° 0 mm 1 mps 677 mmHg 93%
    02:00 +10°C° 0 mm 1 mps 677 mmHg 93%
    03:00 +9°C° 0 mm 2 mps 677 mmHg 94%
    04:00 +9°C° 0 mm 2 mps 676 mmHg 94%
    05:00 +10°C° 0 mm 2 mps 677 mmHg 91%
    06:00 +13°C° 0 mm 2 mps 677 mmHg 89%
    07:00 +14°C° 0 mm 2 mps 677 mmHg 86%
    08:00 +16°C° 0.1 mm 2 mps 678 mmHg 80%
    09:00 +17°C° 0.1 mm 2 mps 678 mmHg 75%
    10:00 +19°C° 0.1 mm 2 mps 679 mmHg 69%
    11:00 +19°C° 0.4 mm 2 mps 678 mmHg 71%
    12:00 +19°C° 0.4 mm 2 mps 678 mmHg 74%
    13:00 +19°C° 0.4 mm 2 mps 678 mmHg 77%
    14:00 +18°C° 0.8 mm 2 mps 678 mmHg 80%
    15:00 +17°C° 0.8 mm 2 mps 678 mmHg 84%
    16:00 +17°C° 0.8 mm 2 mps 678 mmHg 88%
    17:00 +16°C° 0.7 mm 1 mps 678 mmHg 91%
    18:00 +15°C° 0.7 mm 1 mps 677 mmHg 94%
    19:00 +14°C° 0.7 mm 1 mps 677 mmHg 97%
    20:00 +14°C° 0.4 mm 1 mps 678 mmHg 98%
    21:00 +13°C° 0.4 mm 1 mps 678 mmHg 98%
    22:00 +13°C° 0.4 mm 1 mps 678 mmHg 99%
    23:00 +13°C° 0.2 mm 1 mps 678 mmHg 99%

    Tomorrow, 7 June, Sunday

    Time Temperature Precipitation Wind Pressure Humidity
    00:00 +13°C° 0.2 mm 1 mps 678 mmHg 99%
    01:00 +13°C° 0.2 mm 1 mps 678 mmHg 99%
    02:00 +13°C° 0.1 mm 1 mps 678 mmHg 99%
    03:00 +13°C° 0.1 mm 1 mps 678 mmHg 98%
    04:00 +13°C° 0.1 mm 1 mps 677 mmHg 98%
    05:00 +13°C° 0.2 mm 1 mps 677 mmHg 98%
    06:00 +13°C° 0.2 mm 1 mps 677 mmHg 97%
    07:00 +13°C° 0.2 mm 1 mps 678 mmHg 97%
    08:00 +13°C° 1.3 mm 1 mps 678 mmHg 97%
    09:00 +13°C° 1.3 mm 1 mps 678 mmHg 97%
    10:00 +13°C° 1.3 mm 1 mps 678 mmHg 97%
    11:00 +13°C° 0.9 mm 1 mps 678 mmHg 97%
    12:00 +13°C° 0.9 mm 1 mps 678 mmHg 97%
    13:00 +13°C° 0.9 mm 1 mps 678 mmHg 97%
    14:00 +12°C° 2.1 mm 2 mps 679 mmHg 97%
    15:00 +12°C° 2.1 mm 2 mps 679 mmHg 98%
    16:00 +10°C° 2.1 mm 2 mps 679 mmHg 98%
    17:00 +10°C° 3.3 mm 2 mps 679 mmHg 98%
    18:00 +10°C° 3.3 mm 1 mps 679 mmHg 98%
    19:00 +10°C° 3.3 mm 1 mps 679 mmHg 98%
    20:00 +10°C° 1.2 mm 1 mps 680 mmHg 98%
    21:00 +10°C° 1.2 mm 1 mps 680 mmHg 98%
    22:00 +8°C° 1.2 mm 0 mps 680 mmHg 98%
    23:00 +8°C° 0.3 mm 0 mps 680 mmHg 98%

    Day after tomorrow, 8 June, Monday

    Time Temperature Precipitation Wind Pressure Humidity
    00:00 +8°C° 0.3 mm 0 mps 680 mmHg 98%
    01:00 +8°C° 0.3 mm 0 mps 680 mmHg 98%
    02:00 +8°C° 0 mm 0 mps 680 mmHg 98%
    03:00 +8°C° 0 mm 0 mps 680 mmHg 98%
    04:00 +9°C° 0 mm 1 mps 680 mmHg 97%
    05:00 +10°C° 0 mm 1 mps 680 mmHg 97%
    06:00 +10°C° 0 mm 1 mps 680 mmHg 97%
    07:00 +11°C° 0 mm 1 mps 680 mmHg 96%
    08:00 +12°C° 0 mm 1 mps 680 mmHg 92%
    09:00 +13°C° 0 mm 1 mps 680 mmHg 88%
    10:00 +14°C° 0 mm 1 mps 681 mmHg 84%
    11:00 +14°C° 0 mm 1 mps 681 mmHg 81%
    12:00 +15°C° 0 mm 1 mps 680 mmHg 78%
    13:00 +16°C° 0 mm 1 mps 680 mmHg 75%
    14:00 +16°C° 0.1 mm 1 mps 680 mmHg 74%
    15:00 +16°C° 0.1 mm 2 mps 680 mmHg 74%
    16:00 +16°C° 0.1 mm 2 mps 680 mmHg 74%
    17:00 +16°C° 0.2 mm 1 mps 680 mmHg 78%
    18:00 +15°C° 0.2 mm 1 mps 680 mmHg 83%
    19:00 +14°C° 0.2 mm 1 mps 680 mmHg 87%
    20:00 +14°C° 0.6 mm 1 mps 680 mmHg 91%
    21:00 +13°C° 0.6 mm 1 mps 680 mmHg 94%
    22:00 +11°C° 0.6 mm 0 mps 680 mmHg 97%
    23:00 +11°C° 0.6 mm 0 mps 680 mmHg 98%

    9 June, Tuesday

    Time Temperature Precipitation Wind Pressure Humidity
    00:00 +11°C° 0.6 mm 0 mps 680 mmHg 98%
    01:00 +11°C° 0.6 mm 0 mps 680 mmHg 98%
    02:00 +11°C° 0.4 mm 0 mps 680 mmHg 98%
    03:00 +11°C° 0.4 mm 0 mps 680 mmHg 98%
    04:00 +11°C° 0.4 mm 0 mps 680 mmHg 98%
    05:00 +11°C° 0.2 mm 0 mps 680 mmHg 97%
    06:00 +12°C° 0.2 mm 0 mps 681 mmHg 97%
    07:00 +12°C° 0.2 mm 0 mps 681 mmHg 96%
    08:00 +12°C° 0.7 mm 0 mps 681 mmHg 96%
    09:00 +12°C° 0.7 mm 0 mps 681 mmHg 97%
    10:00 +12°C° 0.7 mm 0 mps 681 mmHg 97%
    11:00 +13°C° 0.6 mm 1 mps 681 mmHg 96%
    12:00 +14°C° 0.6 mm 1 mps 681 mmHg 95%
    13:00 +14°C° 0.6 mm 1 mps 681 mmHg 94%
    14:00 +14°C° 0.3 mm 1 mps 681 mmHg 95%
    15:00 +14°C° 0.3 mm 1 mps 681 mmHg 95%
    16:00 +14°C° 0.3 mm 1 mps 681 mmHg 96%
    17:00 +13°C° 0.5 mm 1 mps 681 mmHg 97%
    18:00 +13°C° 0.5 mm 1 mps 681 mmHg 97%
    19:00 +13°C° 0.5 mm 1 mps 681 mmHg 98%
    20:00 +13°C° 0.5 mm 1 mps 681 mmHg 98%
    21:00 +12°C° 0.5 mm 0 mps 681 mmHg 99%
    22:00 +11°C° 0.5 mm 0 mps 681 mmHg 99%
    23:00 +11°C° 0.9 mm 0 mps 681 mmHg 99%

    10 June, Wednesday

    Time Temperature Precipitation Wind Pressure Humidity
    00:00 +11°C° 0.9 mm 0 mps 681 mmHg 99%
    01:00 +11°C° 0.9 mm 0 mps 681 mmHg 98%
    02:00 +11°C° 1.4 mm 0 mps 681 mmHg 98%
    03:00 +11°C° 1.4 mm 0 mps 680 mmHg 98%
    04:00 +12°C° 1.4 mm 1 mps 680 mmHg 97%
    05:00 +11°C° 0.5 mm 0 mps 680 mmHg 96%
    06:00 +12°C° 0.5 mm 0 mps 681 mmHg 95%
    07:00 +12°C° 0.5 mm 0 mps 681 mmHg 94%
    08:00 +13°C° 0.1 mm 0 mps 681 mmHg 90%
    09:00 +15°C° 0.1 mm 1 mps 681 mmHg 86%
    10:00 +16°C° 0.1 mm 1 mps 682 mmHg 83%
    11:00 +16°C° 0.6 mm 1 mps 682 mmHg 85%
    12:00 +16°C° 0.6 mm 2 mps 682 mmHg 88%
    13:00 +16°C° 0.6 mm 2 mps 682 mmHg 90%
    14:00 +15°C° 1.1 mm 1 mps 682 mmHg 93%
    15:00 +14°C° 1.1 mm 1 mps 681 mmHg 95%
    16:00 +14°C° 1.1 mm 1 mps 681 mmHg 98%
    17:00 +13°C° 1.5 mm 1 mps 682 mmHg 98%
    18:00 +13°C° 1.5 mm 1 mps 682 mmHg 98%
    19:00 +12°C° 1.5 mm 0 mps 682 mmHg 98%
    20:00 +12°C° 1.4 mm 0 mps 682 mmHg 98%
    21:00 +13°C° 1.4 mm 1 mps 683 mmHg 97%
    22:00 +12°C° 1.4 mm 1 mps 683 mmHg 97%
    23:00 +12°C° 0.3 mm 1 mps 683 mmHg 97%

    11 June, Thursday

    Time Temperature Precipitation Wind Pressure Humidity
    00:00 +10°C° 0.3 mm 0 mps 683 mmHg 97%
    01:00 +10°C° 0.3 mm 0 mps 683 mmHg 97%
    02:00 +10°C° 0 mm 0 mps 682 mmHg 96%
    03:00 +9°C° 0 mm 0 mps 682 mmHg 96%
    04:00 +9°C° 0 mm 0 mps 682 mmHg 96%
    05:00 +10°C° 0 mm 0 mps 683 mmHg 94%
    06:00 +12°C° 0 mm 0 mps 683 mmHg 92%
    07:00 +13°C° 0 mm 0 mps 683 mmHg 90%
    08:00 +15°C° 0.1 mm 1 mps 684 mmHg 86%
    09:00 +16°C° 0.1 mm 1 mps 684 mmHg 82%
    10:00 +18°C° 0.1 mm 1 mps 684 mmHg 78%
    11:00 +17°C° 0.4 mm 2 mps 684 mmHg 81%
    12:00 +17°C° 0.4 mm 2 mps 684 mmHg 84%
    13:00 +17°C° 0.4 mm 2 mps 683 mmHg 88%
    14:00 +16°C° 0.4 mm 2 mps 683 mmHg 88%
    15:00 +16°C° 0.4 mm 2 mps 683 mmHg 89%
    16:00 +16°C° 0.4 mm 2 mps 683 mmHg 90%
    17:00 +16°C° 0.3 mm 2 mps 683 mmHg 92%
    18:00 +15°C° 0.3 mm 1 mps 683 mmHg 93%
    19:00 +15°C° 0.3 mm 1 mps 683 mmHg 95%
    20:00 +14°C° 0.1 mm 1 mps 683 mmHg 96%
    21:00 +14°C° 0.1 mm 1 mps 683 mmHg 97%
    22:00 +13°C° 0.1 mm 1 mps 683 mmHg 98%
    23:00 +13°C° 0 mm 1 mps 683 mmHg 98%
    Show more